Change the Weather History Date:

Friday, November 8, 2013

  Actual Average Record
Temperature  
Mean Temperature 40 °F -  
Max Temperature 42 °F 50 °F 75 °F (1938)
Min Temperature 39 °F 36 °F 21 °F (1992)
Degree Days  
Heating Degree Days 24    
Moisture  
Dew Point 28 °F    
Average Humidity 61    
Maximum Humidity 70    
Minimum Humidity 49    
Precipitation  
Precipitation 0.00 in - - ()
Sea Level Pressure  
Sea Level Pressure 30.16 in    
Wind  
Wind Speed 14 mph (WNW)    
Max Wind Speed 18 mph    
Max Gust Speed 32 mph    
Visibility 10 miles    
Events Rain    
Averages and records for this station are not official NWS values.
T = Trace of Precipitation, MM = Missing Value Source: NWS Daily Summary

Daily Weather History Graph

Daily Weather History Graph

Search for Another Location

Airport or City:

Trip Planner

Search our weather history database for the weather conditions in past years. The results will help you decide how hot, cold, wet, or windy it might be!

Date:

Astronomy

Nov. 08, 2013 Rise Set
Actual Time 6:59 AM EST 5:01 PM EST
Civil Twilight 6:29 AM EST 5:31 PM EST
Nautical Twilight 5:56 AM EST 6:04 PM EST
Astronomical Twilight 5:23 AM EST 6:37 PM EST
Moon 11:54 AM EST (11/8) 10:20 PM EST (11/8)
Length of Visible Light 11h 01m
Length of Day
10h 01m
Waxing Crescent, 33% of the Moon is Illuminated
Nov 8
Waxing Crescent
Nov 10
First Quarter
Nov 17
Full
Nov 25
Last Quarter
Dec 2
New

Hourly Weather History & Observations

Time (EST) Temp. Windchill Dew Point Humidity Pressure Visibility Wind Dir Wind Speed Gust Speed Precip Events Conditions
12:53 AM 39.9 °F 32.1 °F 26.1 °F 58% 30.02 in 10.0 mi West 13.8 mph 24.2 mph N/A   Scattered Clouds
1:53 AM 41.0 °F 34.3 °F 24.1 °F 51% 30.02 in 10.0 mi West 11.5 mph 26.5 mph N/A   Mostly Cloudy
2:53 AM 39.9 °F 32.9 °F 27.0 °F 60% 30.02 in 10.0 mi West 11.5 mph 20.7 mph N/A   Overcast
3:53 AM 39.9 °F 32.5 °F 28.0 °F 63% 30.03 in 10.0 mi WNW 12.7 mph 23.0 mph N/A   Overcast
4:53 AM 39.9 °F 32.1 °F 27.0 °F 60% 30.05 in 10.0 mi WNW 13.8 mph 32.2 mph N/A   Overcast
5:53 AM 39.9 °F 31.8 °F 28.9 °F 65% 30.07 in 10.0 mi WNW 15.0 mph 31.1 mph N/A   Overcast
6:07 AM 39.2 °F 30.8 °F 30.2 °F 70% 30.06 in 10.0 mi WNW 15.0 mph 28.8 mph N/A   Overcast
6:25 AM 39.2 °F 30.2 °F 30.2 °F 70% 30.06 in 10.0 mi WNW 17.3 mph 26.5 mph N/A   Overcast
6:53 AM 39.0 °F 29.9 °F 30.0 °F 70% 30.09 in 10.0 mi WNW 17.3 mph 29.9 mph N/A   Overcast
7:53 AM 39.9 °F 31.4 °F 28.9 °F 65% 30.12 in 10.0 mi NW 16.1 mph 28.8 mph N/A   Overcast
8:53 AM 39.9 °F 30.8 °F 27.0 °F 60% 30.15 in 10.0 mi WNW 18.4 mph 28.8 mph N/A   Mostly Cloudy
9:53 AM 41.0 °F 33.5 °F 28.9 °F 62% 30.17 in 10.0 mi NW 13.8 mph 29.9 mph N/A   Mostly Cloudy
10:53 AM 41.0 °F 32.8 °F 28.9 °F 62% 30.19 in 10.0 mi WNW 16.1 mph 28.8 mph N/A   Mostly Cloudy
11:53 AM 39.9 °F 31.8 °F 28.9 °F 65% 30.20 in 10.0 mi WNW 15.0 mph 26.5 mph N/A   Overcast
12:53 PM 41.0 °F 33.1 °F 30.0 °F 65% 30.20 in 10.0 mi WNW 15.0 mph 26.5 mph 0.00 in   Overcast
1:26 PM 42.8 °F 35.1 °F 30.2 °F 61% 30.18 in 10.0 mi WNW 16.1 mph 23.0 mph 0.00 in   Overcast
1:33 PM 42.8 °F 36.2 °F 30.2 °F 61% 30.18 in 10.0 mi WNW 12.7 mph 23.0 mph 0.00 in   Overcast
1:53 PM 42.1 °F 34.2 °F 28.9 °F 60% 30.20 in 10.0 mi WNW 16.1 mph 24.2 mph 0.00 in   Overcast
2:53 PM 39.9 °F 34.5 °F 30.9 °F 70% 30.20 in 10.0 mi SW 8.1 mph - 0.00 in Rain Light Rain
3:53 PM 42.1 °F 34.2 °F 30.9 °F 65% 30.21 in 10.0 mi WNW 16.1 mph 26.5 mph 0.00 in   Overcast
4:53 PM 42.1 °F 35.2 °F 27.0 °F 55% 30.22 in 10.0 mi West 12.7 mph 26.5 mph N/A   Overcast
5:53 PM 41.0 °F 33.1 °F 28.9 °F 62% 30.24 in 10.0 mi WNW 15.0 mph - N/A   Overcast
6:53 PM 41.0 °F 33.5 °F 28.9 °F 62% 30.25 in 10.0 mi NW 13.8 mph - N/A   Overcast
7:53 PM 42.1 °F 35.7 °F 27.0 °F 55% 30.25 in 10.0 mi WNW 11.5 mph 20.7 mph N/A   Overcast
8:53 PM 42.1 °F 36.1 °F 26.1 °F 53% 30.26 in 10.0 mi WNW 10.4 mph - N/A   Overcast
9:53 PM 42.1 °F 36.6 °F 24.1 °F 49% 30.25 in 10.0 mi West 9.2 mph 16.1 mph N/A   Overcast
10:53 PM 42.1 °F 36.6 °F 24.1 °F 49% 30.25 in 10.0 mi SW 9.2 mph - N/A   Overcast
11:53 PM 39.0 °F 34.8 °F 28.9 °F 67% 30.25 in 10.0 mi South 5.8 mph - N/A   Overcast